Location: White Ridge parking lot
(35.4984°N, 106.8413°W)
Time: 09:52:15
(UTC-06:00)

XW-2D - Pass Details

Date: 23 September 2019
Orbit: 507 x 528 km, 97.5° (Epoch: 19 October)

Event Time Altitude Azimuth Distance (km) Brightness Sun altitude
Rises 19:28:57 0° 214° (SW) 2,647 ? -6.1°
Reaches altitude 10° 19:32:37 10° 252° (WSW) 1,766 ? -6.9°
Maximum altitude 19:33:39 11° 268° (W) 1,709 ? -7.1°
Drops below altitude 10° 19:34:43 10° 284° (WNW) 1,770 ? -7.3°
Sets 19:38:25 0° 322° (NW) 2,665 ? -8.1°
